Regional Weather Roundup
Issued by NWS

Home | Current Version | Previous Version | Text Only | Print | Product List | Glossary On
Versions: 1 2 3 4 5 6 7 8 9 10 11 12 13 14 15 16 17 18 19 20 21 22 23 24 25 26
000
ASUS42 KTBW 242016
RWRFL
FLORIDA REGIONAL WEATHER ROUNDUP
NATIONAL WEATHER SERVICE TAMPA BAY RUSKIN FL
400 PM EDT SAT SEP 24 2016

NOTE: "FAIR" INDICATES FEW OR NO CLOUDS BELOW 12,000 FEET WITH NO
SIGNIFICANT WEATHER AND/OR OBSTRUCTIONS TO VISIBILITY.

FLZ001>010-012>015-112-114-115-242100-
PANHANDLE FLORIDA

CITY           SKY/WX    TMP DP  RH WIND       PRES   REMARKS
PENSACOLA      MOSUNNY   95  68  41 N8        29.98F HX  99
PENSACOLA NAS  MOSUNNY   92  73  53 S9        29.98F HX 100
MILTON NAS     SUNNY     95  67  39 NW6       29.99  HX  99
CRESTVIEW      LGT RAIN  84  69  60 W5        30.00F
DUKE FIELD     FAIR      86  66  52 NW8       29.98F
VALPARAISO     PTSUNNY   89  70  54 NW3       29.99F THUNDER
MARY ESTHER    TSTM      82  70  65 N20G55    30.00  VSB 1/2
TRI COUNTY     FAIR      95  65  37 N8        29.98F HX  97
PANAMA CITY    MOSUNNY   91  70  49 SW8       29.97F HX  97
TYNDALL AFB    MOSUNNY   88  75  65 W7        29.98F HX  98
APALACHICOLA   MOSUNNY   89  78  70 SW7       29.99F HX 103

STATION/POSITION SKY/WX   TEMP    WIND        PRES    WAVE   SWELL
                          AIR SEA DIR/SP/G            HT/PER HT/PER
                          (F)     (DEG/KT/KT) (MB)    (FT/S) (FT/S)
30.1N   87.6W              86 87  210/  4/  6 1016.2F   1
29.2N   88.2W              83 86   50/  4/  6 1016.8F
28.8N   86.0W              84 86              1016.5F   1/ 4
PANAMA CITY BEAC           85 87  260/  9/ 12 1016.5F
TOWER C                    84     230/  4/  5 1016.3F
28.5N   84.5W              85 86   40/  6/  8 1016.0F   0

$$
FLZ011-016>038-118-127-128-134-139-239-242100-
NORTH FLORIDA

CITY           SKY/WX    TMP DP  RH WIND       PRES   REMARKS
MARIANNA       RAIN      83  72  69 W14G24    29.96F
TALLAHASSEE    CLOUDY    82  72  71 SW7       29.99F
PERRY          PTSUNNY   89  69  51 CALM      29.99F
CROSS CITY     PTSUNNY   91  68  46 NW6       29.98F HX  95
LAKE CITY      FAIR      90  68  48 CALM      29.99F
GAINESVILLE    MOSUNNY   92  69  47 VRB3      29.98F HX  97
WILLISTON      SUNNY     95  70  43 CALM      29.98F HX 101
PALATKA        CLOUDY    86  73  66 E7        29.99S
MAYPORT NAS    SUNNY     85  74  69 NE14      30.00F
JACKSONVILLE   PTSUNNY   86  73  65 NE9       29.98F
JAX NAS        MOSUNNY   93  68  43 N8        29.99F HX  97
FERNANDINA BEA FAIR      88  73  62 E13       29.99F HX  96
ST AUGUSTINE   SUNNY     86  73  65 NE14      30.00F
PALM COAST     SUNNY    N/A N/A N/A NE8       30.00F

STATION/POSITION SKY/WX   TEMP    WIND        PRES    WAVE   SWELL
                          AIR SEA DIR/SP/G            HT/PER HT/PER
                          (F)     (DEG/KT/KT) (MB)    (FT/S) (FT/S)
SHELL POINT                81     310/  6/ 14 1015.3
KEATON BEACH               85     280/  8/ 10 1015.4F
CEDAR KEY                  87     250/  5/  8 1016.2F
FERNANDINA                 87 84   30/  6/ 12 1016.2F
30.7N   81.3W                 83                N/A     2/11   2/11
MAYPORT                    82 84   60/ 12/ 14 1016.7F
31.4N   80.9W              80 83   30/  8/ 10 1016.0F   3/11   3/11
ST AUGUSTINE               81 85   50/ 14/ 15 1016.7F

$$
FLZ040-043>046-052-053-057-058-063-144-242100-
INTERIOR CENTRAL FLORIDA

CITY           SKY/WX    TMP DP  RH WIND       PRES   REMARKS
OCALA          MOSUNNY   91  66  43 NE6       29.98F
THE VILLAGES     N/A     91  79  66 MISG      29.88F HX 107
LEESBURG       SUNNY     92  66  42 VRB3      29.99F
SANFORD        SUNNY     94  66  39 NW5       29.98F HX  97
ORLANDO EXEC   MOSUNNY   91  71  51 CALM      29.98F HX  97
ORLANDO INTL   PTSUNNY   92  69  47 E6        29.98S HX  97
KISSIMMEE      CLOUDY    90  70  51 CALM      29.98F HX  95
WINTER HAVEN   MOSUNNY   93  68  43 VRB5      29.99F HX  97
LAKELAND       MOSUNNY   91  73  55 CALM      29.98F HX 100
BARTOW         MOSUNNY   91  70  49 N6        29.98F HX  97
OKEECHOBEE     CLOUDY    86  77  74 E8        29.99S HX  97

$$
FLZ041-047-054-059-064-141-147-242100-
EAST CENTRAL FLORIDA

CITY           SKY/WX    TMP DP  RH WIND       PRES   REMARKS
ORMOND BEACH   MOSUNNY   84  73  70 E9        30.00F
DAYTONA BEACH  MOSUNNY   87  73  62 NE13      30.00F
DELAND         MOSUNNY   90  73  58 NE12      29.98S HX  98
NEW SMYRNA BEA MOSUNNY   86  73  66 E8        30.01F
JFK SPACE CTR  PTSUNNY   82  73  74 E7        29.99F
TITUSVILLE     PTSUNNY   82  75  78 E14       30.01S
CAPE CANAVERAL CLOUDY    83  74  74 E10       29.99F
PATRICK AFB    CLOUDY    84  74  73 NE8       29.99F
MELBOURNE      TSTM      85  76  74 NE12      29.99F
VERO BEACH     CLOUDY    84  76  76 NE7       30.00S
FT PIERCE      CLOUDY    82  76  81 CALM      29.99F

STATION/POSITION SKY/WX   TEMP    WIND        PRES    WAVE   SWELL
                          AIR SEA DIR/SP/G            HT/PER HT/PER
                          (F)     (DEG/KT/KT) (MB)    (FT/S) (FT/S)
28.5N   80.2W              83 85   40/ 10/ 12 1016.3F
TRIDENT PIER               83 86   40/  6/  8 1016.5F
28.4N   80.5W                 86                N/A     2/11   2/11
27.5N   80.2W                 86                N/A     3/11   2/11

$$
FLZ050-056-061-142-242-148-248-149-249-151-251-155-255-
160-260-242100-
WEST CENTRAL FLORIDA

CITY           SKY/WX    TMP DP  RH WIND       PRES   REMARKS
CRYSTAL RIVER  FAIR      90  73  58 W6        29.98S HX  98
INVERNESS      FAIR      91  70  49 NE3       29.98F HX  97
BROOKSVILLE    MOSUNNY   92  68  45 CALM      29.98F HX  96
CLEARWATER AIR FAIR      88  72  58 NW9       29.97F
ST PETE CLEARW SUNNY     92  73  53 NW9       29.97F HX 100
TAMPA INTL     MOSUNNY   92  72  51 W12       29.97F HX  99
TAMPA EXEC     MOSUNNY   95  70  43 CALM      29.97F HX 101
PLANT CITY     PTSUNNY   93  73  52 E5        29.99F HX 102
MACDILL AFB    MOSUNNY   94  72  48 NW8       29.97F HX 102
PETER O KNIGHT PTSUNNY   91  75  59 W5        29.96F HX 102
ST PETERSBURG  PTSUNNY   90  76  63 N5        29.95F HX 101
SARASOTA       CLOUDY    91  75  59 W12       29.96F THUNDER HX 101
VENICE         FAIR      88  77  70 W6        29.98F HX 100

STATION/POSITION SKY/WX   TEMP    WIND        PRES    WAVE   SWELL
                          AIR SEA DIR/SP/G            HT/PER HT/PER
                          (F)     (DEG/KT/KT) (MB)    (FT/S) (FT/S)
27.3N   84.2W                 87                N/A     1
CLEARWATER BEACH           85 88  340/ 11/ 12 1015.8F
MIDDLE TAMPA BAY                  290/  5/  6 1016.0F
VENICE                     85 88  160/  4/  5 1015.5F

$$
FLZ066-069-070-075>078-162-262-165-265-242100-
SOUTHWEST FLORIDA AND KEYS

CITY           SKY/WX    TMP DP  RH WIND       PRES   REMARKS
PUNTA GORDA    PTSUNNY   84  73  69 S15G21    30.00R THUNDER
FT MYERS       MOSUNNY   89  74  60 NW8       29.97F HX  98
SOUTHWEST INTL CLOUDY    89  73  59 VRB5      29.97F HX  97
NAPLES         MOSUNNY   90  73  57 VRB6      29.97F HX  98
MARATHON       MOSUNNY   87  75  67 N5        29.97F HX  96
KEY WEST NAS   PTSUNNY   86  75  69 N8        29.98F HX  95
KEY WEST INTL  SUNNY     88  77  69 E5        29.98F HX 100

STATION/POSITION SKY/WX   TEMP    WIND        PRES    WAVE   SWELL
                          AIR SEA DIR/SP/G            HT/PER HT/PER
                          (F)     (DEG/KT/KT) (MB)    (FT/S) (FT/S)
NAPLES                        89              1015.9F
26.0N   85.6W              84 86   40/  6/  8 1016.4F   1/ 4
DRY TORTUGAS               86      40/  4/  5 1015.4F
SAND KEY                   84      40/  4/  5 1015.7F
LONG KEY                   85 90  100/  1/  3 1015.9F

$$
FLZ067-068-071>074-168-172>174-242100-
SOUTHEAST FLORIDA

CITY           SKY/WX    TMP DP  RH WIND       PRES   REMARKS
W PALM BEACH   TSTM      85  76  74 NE7       30.00F
BOCA RATON     LGT RAIN  82  77  83 SE5       30.00S
FT LAUDER-EXEC CLOUDY    84  75  74 NE5       30.00R
FT LAUDERDALE  CLOUDY    85  75  72 E8        29.98F
POMPANO BEACH  CLOUDY    84  76  76 E6        29.99S
PEMBROKE PINES LGT RAIN  81  74  79 W3        30.00S
OPA LOCKA      CLOUDY    80  76  87 W3        29.99F
MIAMI          CLOUDY    80  76  87 CALM      29.99S
WEST KENDALL   TSTM      74  73  97 S5        29.99F
HOMESTEAD      TSTM      73  72  94 W8        29.99S FOG

STATION/POSITION SKY/WX   TEMP    WIND        PRES    WAVE   SWELL
                          AIR SEA DIR/SP/G            HT/PER HT/PER
                          (F)     (DEG/KT/KT) (MB)    (FT/S) (FT/S)
PORT EVERGLADES            84      70/  3/  6 1015.6F
VIRGINIA KEY               85 91   80/  5/  8 1015.9F
LAKE WORTH                 84 86   90/  6/  8 1015.7F
FOWEY ROCKS                84 86   70/  7/  8 1015.9F
SETTLEMENT POINT           86      30/  3/  4 1016.5S

$$





USA.gov is the U.S. government's official web portal to all federal, state and local government web resources and services.